Regional Weather Roundup
Issued by NWS

Home | Current Version | Previous Version | Graphics & Text | Print | Product List | Glossary On
Versions: 1 2 3 4 5 6 7 8 9 10 11 12 13 14 15 16 17 18 19 20 21 22 23 24 25 26 27 28 29 30 31 32 33 34 35 36 37 38 39 40 41 42 43 44 45 46 47 48 49 50
000
ASUS43 KLMK 271610
RWRKY
KENTUCKY REGIONAL WEATHER ROUNDUP
NATIONAL WEATHER SERVICE LOUISVILLE KY
1100 AM EST THU NOV 27 2014

NOTE "FAIR" INDICATES FEW OR NO CLOUDS BELOW 12,000 FEET
WITH NO SIGNIFICANT WEATHER AND/OR OBSTRUCTIONS TO VISIBILITY.

KYZ001>023-026-027-061>063-070>075-271700-
WESTERN AND SOUTH CENTRAL KENTUCKY

CITY           SKY/WX    TMP DP  RH WIND       PRES   REMARKS
PADUCAH        CLOUDY    33  24  69 N16       30.49R WCI  23
HENDERSON      CLOUDY    28  21  74 NW15      30.46R WCI  17
OWENSBORO      CLOUDY    30  25  82 N16       30.44R WCI  19
HOPKINSVILLE   CLOUDY    35  28  76 NW15      30.43R WCI  25
BOWLING GREEN  CLOUDY    34  26  72 NW8       30.38R WCI  27
GLASGOW        CLOUDY    33  29  85 NW9       30.36R WCI  25
$$

KYZ024-025-028>034-038-045-046-053-271700-
NORTH CENTRAL KENTUCKY

CITY           SKY/WX    TMP DP  RH WIND       PRES   REMARKS
LOUISVILLE/SDF PTSUNNY   33  24  69 NW8       30.35R WCI  26
LOUISVILLE/LOU CLOUDY    32  23  69 NW10      30.35R WCI  24
FORT KNOX      CLOUDY    32  25  74 W7        30.34R WCI  26
$$

KYZ035>037-039>044-047>052-055>060-089>105-271700-
NORTHEAST KENTUCKY

CITY           SKY/WX    TMP DP  RH WIND       PRES   REMARKS
LEXINGTON      CLOUDY    30  23  75 NW12      30.30R WCI  20
COVINGTON      PTSUNNY   34  21  59 NW15      30.27R WCI  24
FRANKFORT      CLOUDY    30  21  69 W9        30.31R WCI  22
$$

KYZ054-064>069-076>088-106>120-271700-
SOUTHEAST KENTUCKY

CITY           SKY/WX    TMP DP  RH WIND       PRES   REMARKS
JACKSON        CLOUDY    32  25  75 MISG      30.22R
LONDON         CLOUDY    34  27  75 NW12      30.28R WCI  25
SOMERSET       CLOUDY    32  28  86 NW6       30.32R WCI  26
MIDDLESBORO    NOT AVBL
MONTICELLO     CLOUDY    34  31  89 NW8       30.34R WCI  27
$$



USA.gov is the U.S. government's official web portal to all federal, state and local government web resources and services.